Location: Acequia del Cap
(41.7000°N, 0.6167°E)
Time: 15:44:19
(UTC+00:00)

FALCON 9 DEB - Pass Details

Date: 07 August 2020
Orbit: 427 x 441 km, 53.0° (Epoch: 22 September)

Event Time Altitude Azimuth Distance (km) Brightness Sun altitude
Rises 03:25:32 0° 310° (NW) 2,429 6.8 -15.6°
Reaches altitude 10° 03:27:43 10° 316° (NW) 1,554 5.9 -15.3°
Maximum altitude 03:31:07 50° 33° (NNE) 568 4.1 -14.8°
Drops below altitude 10° 03:34:30 10° 110° (ESE) 1,540 6.3 -14.3°
Sets 03:36:38 0° 116° (ESE) 2,402 7.3 -14.0°
